1st Responders/1st Detectors/Storm Spotters Weather Summary for Calloway County, KY

Forecast Maps


Reg. NEXRAD Animation


National Fire Danger: Day 1 & 2 Map

Current NWS Watch/Warnings

SPC Convective Day 1 Outlook


Day 2 Outlook

(Click images to enlarge|Page will refresh every 5 minutes)
UK Ag. Weather Center Desktop Severe Weather Service[HERE]
Calloway County, KY Hazardous Weather Outlook Webcast
(9 AM to 9 PM Mon-Fri)
[Fast]
[Dial-up]


UKAWC 1st Detectors/1st Responders Precision Weather Forecast For CALLOWAY County, Kentucky
(based on the NWS County Digital Forecast)

ISSUED AT 19:00 UTC ON SUNDAY OCT 22 2017
DAY SUNDAY
CDT 3HR 3P 4P 5P 6P
MAX/MIN -- -- -- 76°
TEMP 74° 74° 72° 68°
SKY COVER 85% 94% 96% 98%
Clouds
DEW PT 63° 63° 63° 63°
RH 68% 68% 76% 83%
POP 12HR -- -- -- --
RAIN/SNOW (liq.equ) -- -- -- --
SNOWFALL -- -- -- --
WIND SPEED(MPH) 10 9 7 7
WIND Gust(MPH) 22 17 15 10
WIND DIR S S S S
DEW -- -- -- --
HeatIndex 74 74 72 68
Rain Showers Chance Chance Likely Likely
Thunder Storm Isolated Isolated Isolated Isolated
WIND CHILL -- -- -- --
SPRAY COND
DRY COND
LIVESTOCK COLDSTRESS
LIVESTOCK HEATSTRESS 71.32 71.32 70.26 67.14



DAY MONDAY TUESDAY WEDNESDAY THURSDAY FRIDAY SATURDAY
CDT 6HR 7P 8P 9P 10P 11P MIDN 1A 2A 3A 4A 5A 6A 7A 8A 9A 10A 11A NOON 1P 2P 3P 4P 5P 6P 7P 8P 9P 10P 11P MIDN 1A 2A 4A 7A 10A 1P 4P 7P 1A 7A 1P 7P 1A 7A 1P 7P 1A 7A 1P 7P 1A 7A 1P 7P
MAX/MIN -- -- -- -- -- -- -- -- -- -- -- -- 54° -- -- -- -- -- -- -- -- -- -- 63° -- -- -- -- -- -- -- -- -- 45° -- -- 58° -- -- 38° 58° -- -- 43° 67° -- -- 50° 63° -- -- 40° 52° --
TEMP 63° 61° 58° 58° 58° 58° 56° 56° 56° 54° 54° 54° 54° 54° 54° 56° 56° 58° 61° 63° 63° 63° 61° 58° 56° 54° 54° 54° 52° 52° 50° 50° 47° 45° 54° 58° 58° 49° 43° 38° 56° 52° 47° 45° 65° 59° 54° 52° 63° 56° 47° 40° 52° 47°
SKY COVER 100% 99% 99% 98% 97% 96% 96% 96% 96% 96% 96% 96% 96% 90% 84% 78% 72% 66% 60% 56% 52% 48% 44% 41% 37% 37% 37% 38% 38% 39% 39% 36% 30% 21% 28% 35% 41% 47% 25% 17% 31% 27% 6% 4% 4% 3% 11% 44% 72% 71% 75% 63% 60% 38%
Clouds
DEW PT 63° 61° 58° 58° 56° 56° 56° 56° 56° 54° 54° 54° 52° 52° 52° 52° 52° 52° 52° 50° 49° 47° 47° 47° 47° 47° 45° 43° 43° 43° 43° 43° 41° 38° 40° 36° 34° 36° 36° 31° 34° 38° 38° 38° 43° 45° 43° 45° 45° 43° 40° 36° 36° 36°
RH 96% 100% 100% 100% 96% 96% 99% 96% 100% 100% 99% 99% 96% 96% 89% 86% 83% 77% 71% 65% 57% 56% 60% 66% 72% 74% 71% 68% 71% 74% 76% 76% 79% 76% 59% 45% 42% 61% 72% 78% 43% 56% 71% 76% 44% 59% 68% 77% 51% 63% 73% 88% 54% 67%
POP 12HR 64% -- -- -- -- -- -- -- -- -- -- -- 72% -- -- -- -- -- -- -- -- -- -- -- 26% -- -- -- -- -- -- -- -- 15% -- -- -- 4% -- 1% -- 2% -- 2% -- 1% -- 5% -- 36% -- 37% -- 26%
RAIN/SNOW (liq.equ) 0.14in -- -- -- -- -- 0.43in -- -- -- -- -- 0.40in -- -- -- -- -- 0.18in -- -- -- -- -- 0.15in -- -- -- -- -- 0.00in -- -- 0.00in -- 0.00in -- 0.00in -- -- -- -- -- -- -- -- -- -- -- -- -- -- -- --
SNOWFALL 0in -- -- -- -- -- 0in -- -- -- -- -- 0in -- -- -- -- -- 0in -- -- -- -- -- 0in -- -- -- -- -- 0in -- -- 0in -- 0in -- 0in -- -- -- -- -- -- -- -- -- -- -- -- -- -- -- --
WIND SPEED(MPH) 7 6 6 6 6 6 6 6 6 6 6 6 7 7 7 8 9 10 10 13 13 10 9 8 7 6 6 7 7 7 7 7 7 7 13 14 10 7 6 7 10 8 6 7 10 8 9 8 8 7 5 7 8 7
WIND DIR S SW W NW NW NW NW NW NW NW NW NW N N NW NW NW NW NW NW NW NW NW W W W W W W W W W W W NW W NW NW W W W SW SW S S S S SW W W W W NW NW
HeatIndex 63 61 58 58 58 58 56 56 56 54 54 54 54 54 54 56 56 58 61 63 63 63 61 58 56 54 54 54 52 52 50 50 47 45 54 58 58 49 40 32 56 52 47 41 65 59 54 52 63 56 47 35 52 47
Rain Showers Likely Likely Likely Likely Likely Likely Chance Chance Chance Chance Chance Chance Slight Chance Slight Chance Slight Chance Slight Chance Slight Chance Slight Chance Slight Chance Slight Chance Slight Chance Slight Chance Slight Chance Slight Chance Slight Chance Slight Chance Slight Chance Slight Chance Slight Chance Slight Chance -- -- -- -- -- -- -- -- -- -- -- -- -- -- -- -- -- Slight Chance Chance Chance Chance Chance Chance Slight Chance
Thunder Storm -- -- -- -- -- -- -- -- -- -- -- -- -- -- -- -- -- -- -- -- -- -- -- -- -- -- -- -- -- -- -- -- -- -- -- -- -- -- -- -- -- -- -- -- -- -- -- -- -- -- -- -- -- --
WIND CHILL -- -- -- -- -- -- -- -- -- -- -- -- -- -- -- -- -- -- -- -- -- -- -- -- -- -- -- -- -- -- -- -- -- 41° -- -- -- -- 39° 33° -- -- -- 41° -- -- -- -- -- -- -- 35° -- --
SPRAY COND
DRY COND
LIVESTOCK COLDSTRESS
LIVESTOCK HEATSTRESS 62.91 61.00 58.00 58.00 58.02 58.02 56.02 56.06 56.00 54.00 54.03 54.03 54.11 54.11 54.29 56.22 56.26 58.10 60.65 62.19 62.01 61.98 60.52 58.15 56.43 54.69 54.77 54.84 53.08 52.97 51.16 51.16 48.36 46.82 55.08 58.24 58.26 51.10 45.43 40.52 56.88 53.65 48.88 46.82 63.09 58.95 54.84 52.86 61.87 56.57 48.75 41.24 53.72 49.14

Click on individual weather variable above in left-hand column (ie., TEMP, RH, QPF 12HR) to view state forecast maps






NWS 48 Hr. Forecast Maps,

Regional Hourly Observations For CALLOWAY County, Kentucky
Issued at 300 PM EDT SUN OCT 22 2017
WESTERN AND SOUTH CENTRAL KENTUCKY
  
CITY           SKY/WX    TMP DP  RH WIND       PRES   REMARKS
PADUCAH        CLOUDY    76  60  57 S8        29.97F                  
HENDERSON      CLOUDY    80  61  52 S18G25    30.00F                  
OWENSBORO      CLOUDY    78  61  55 S21G30    30.02F                  
HOPKINSVILLE   NOT AVBL                                               
BOWLING GREEN  MOSUNNY   81  60  48 S16       30.08F                  
GLASGOW        PTSUNNY   79  58  48 SE9       30.10F                  


Current NOWCAST not available:
Nowcasts are not issued routinely during fair weather. Only when
precipitation or other significant weather is occuring in this county will these
forecasts be issued. Currently, there is no short term forecast in effect.


Fire Weather Forecast For CALLOWAY County, KY
Provided by the National Weather Service:

Issued at: Sun Oct 22 15:05:01 EDT 2017

Cloud Cover           MCldy        Cloudy       PCldy        
Precip Type           tstms        showers      showers      
Chance Precip (%)     80           80           40           
High Temperature(F)   71-75                     63-67        
Minimum RH(%)         66-71                     45-50        
Low Temperature(F)                 50-54                     
Maximum RH(%)                      95-100                    
Temp (24h Trend)      75 (-5)      51 (-11)     66           
RH % (24h Trend)      69 (+23)     100 (+13)    48           
20FTWND-AM(MPH)       S 12-16 G32               NW 7-11 G17  
20FTWND-PM(MPH)       S 9-13 G28   NW 4-8       NW 8-12 G18  
Precip Amount         0.32         0.52         0.24         
Precip Duration       8            4            1            
Precip Begin          7 AM         Continuing   Continuing   
Precip End            Continuing   Continuing   7 PM         
1700'Mix Hgt Temp     71                        62           
Mixing Hgt(FT-AGL)    3856                      3846         
Transport Wind (KTS)  S 18                      NW 15        
Transport Wind (M/S)  S  9                      NW  8        
Vent Rate (M/S-M)     10575                     9376         
Dispersion Index      Good                      Fair to Good 
LAL                   3            1            1            
Haines Index          2            2            3            
Stability(DSI)        SLGT UNSTBL  SLGT UNSTBL  STBL         

Remarks...None.

.Forecast for days 3 through 7...

.MONDAY NIGHT...Partly cloudy. Lows in the mid 40s. West winds
5 to 10 mph. 
.TUESDAY...Mostly sunny. Highs in the upper 50s. Northwest winds
10 to 15 mph with gusts to around 30 mph. 
.TUESDAY NIGHT...Partly cloudy. Lows in the upper 30s. West winds
5 to 10 mph. 
.WEDNESDAY...Mostly sunny. Highs in the upper 50s. West winds
5 to 15 mph. 
.WEDNESDAY NIGHT...Mostly clear. Lows in the lower 40s. Southwest
winds 5 to 10 mph. 
.THURSDAY...Sunny. Highs in the upper 60s. South winds 5 to
15 mph. 
.THURSDAY NIGHT...Mostly clear. Lows in the lower 50s. South
winds 10 to 15 mph. 
.FRIDAY...Partly sunny with a 40 percent chance of rain showers.
Highs in the mid 60s. West winds 5 to 15 mph. 
.FRIDAY NIGHT...Mostly cloudy with a 40 percent chance of rain
showers. Colder. Lows in the upper 30s. West winds 5 to 10 mph. 
.SATURDAY...Partly sunny with a 20 percent chance of rain
showers. Cooler. Highs in the lower 50s. Northwest winds 5 to
10 mph. 

SPC's Fire Weather Web Tool (Excellent!), SPC's Fire Weather Outlooks, NWS Fire Weather WEB, Fire Danger Class Map,
Keetch-Byram Drought Index, ROMAN Web, Haines Index ,
WFAS's 10-hr Dead Fuel Moist., WFAS's 100-hr Dead Fuel Moist., Probablity of Ignition, Visual blackness Map, Palmer Drought Index, HPC's Rainfall Forecast Maps


Hazardous Weather Outlook For CALLOWAY County, Kentucky
1032 AM CDT Sun Oct 22 2017

 DAY ONE  Today and Tonight

There is a slight chance for thunderstorms today. Severe storms are 
not anticipated.

 DAYS TWO THROUGH SEVEN  Monday through Saturday

No hazardous weather is expected at this time.

 SPOTTER INFORMATION STATEMENT  

Spotter activation is not anticipated.

Latest CALLOWAY County, Kentucky Watches, Warnings and Advisories.
Additional Drought Info.: UKAWC Drought Page, Kentucky Drought Watch


7-Day Forecast For CALLOWAY County, KY

TODAY
Mostly cloudy with a chance of showers and isolated thunderstorms. Highs in the mid 70s. South winds 10 to 15 mph with gusts to around 30 mph. Chance of precipitation 50 percent.

TONIGHT
Showers likely in the evening, then a chance of showers after midnight. Lows in the mid 50s. West winds around 5 mph in the evening shifting to the northwest after midnight. Chance of precipitation 70 percent.

MONDAY
Mostly cloudy with a 40 percent chance of showers. Highs in the mid 60s. Northwest winds around 10 mph.

MONDAY NIGHT
Partly cloudy. A 20 percent chance of showers in the evening. Lows in the mid 40s. West winds 5 to 10 mph.

TUESDAY
Mostly sunny. Highs in the upper 50s. Northwest winds 10 to 15 mph with gusts to around 30 mph.

TUESDAY NIGHT
Mostly clear. Lows in the upper 30s.

WEDNESDAY
Mostly sunny. Highs in the upper 50s.

WEDNESDAY NIGHT
Clear. Lows in the lower 40s.

THURSDAY
Sunny. Highs in the upper 60s.

THURSDAY NIGHT
Clear. Lows in the lower 50s.

FRIDAY
Partly sunny with a 40 percent chance of showers. Highs in the mid 60s.

FRIDAY NIGHT
Mostly cloudy with a 40 percent chance of rain showers. Lows around 40.

SATURDAY
Partly sunny with a 40 percent chance of rain showers. Highs in the lower 50s.

Ag Weather Center, Department of Biosystems & Agricultural Engineering, University of Kentucky